Terug naar catalogus

COSMOS 1275 DEB

ActiefPO
NORAD 12706·DEBRIS·🇷🇺 Russia

Gelanceerd Jun 4, 1981 vanaf Plesetsk Cosmodrome

Loading…

Volgende Passages (komende 24 uur)

TLE

VersSource: Space-Track

Epoch: Sep 13, 2026, 22:20 UTC

1 12706U 81053BA  26256.93082463  .00000651  00000-0  57078-3 0  9991
2 12706  82.8798 233.0539 0104309 144.8956 245.0256 13.81644497251345

Volg COSMOS 1275 DEB in realtime met AllMySat

Download on the App Store